Showing default

M-SEL, 63231

Orbit data source: Space-Track

M-SEL, 63231 is an American payload satellite in SSO that was launched on Sat, 15 Mar 2025 UTC via an FALCON 9 launch vehicle from the Air Force Western Test Range (AFWTR). Payload-class satellites include a variety of spacecraft equipped with specific instruments for various scientific and technological missions. These include communications satellites like Starlink; space stations such as the ISS; scientific satellites like the Hubble; Earth observation satellites from companies like Planet Labs, Umbra, and HawkEye 360; GPS; miniature CubeSats for education and research; and military/defense satellites.

Loading next visibility...
Identifier
63231, 2025-052X
Orbit
SSO
Country
Flag of USUS
Related business
Manufacturer
Astro Digital
Mission
Operational Commercial Technology
Bus & Motor
CORVUS-MICRO, Unknown motor
Mass
32 kg wet, 32 kg dry
Launch date (UTC)
2025-03-15 (1 year ago)
Launch vehicle
FALCON 9
Launch site
Air Force Western Test Range (AFWTR)
Object type
Payload
Rocket body
Debris
Shape & HBR
Box, 0.5 m
Radar Cross Section
0.400 m², Medium (>0.1 m² and < 1m²)

Expand to show TLE details & history
Last TLE update: 14 hours ago

TLE from 14 hours ago
0 M-SEL
1 63231U 25052X   26127.27873610  .00005984  00000-0  23893-3 0  9995
2 63231  97.3959  21.2730 0003192 309.3461  50.7494 15.25521990 63686
Epoch: 2026-05-07T06:41Z
TLE epoch observation values (Epoch: 2026-05-07T06:41:22.799Z)
Latitude
0.00001°
Longitude
55.80084°
Altitude
490.93 km
Speed
7.62 km/s
True Right ascension
01h 25m 05s
True Declination
0° 00' 00"
Sunlit
Object was in daylight at epoch
Visualization orbit readout
Latitude
Unknown
Longitude
Unknown
Altitude
Unknown
Speed
Unknown
Apparent Right ascension
Unknown
Apparent Declination
Unknown
Sunlit
N/A
Visualization observer readout
Local Sidereal Time
04:20:15
Azimuth
Unknown
Elevation
Unknown
Doppler factor
Unknown
Orbital elements
Apogee altitude
488.368 km
Perigee altitude
483.985 km
Semi-major axis
6,864.313 km
Eccentricity
0.00032
Inclination
97.3959°
RAAN
21.273°
Arg. of periapsis
309.3461°
True anomaly
50.77773°
Mean anomaly
50.7494°
Eccentric anomaly
50.76357°
Mean motion
3.81634 °/min
Orbital period
94.33 mins
BSTAR
0.00023893
Loading maneuver chart data...
Computing Atmospheric mass density...
Loading historical data...
Loading historical data...
Loading historical data...
Loading historical data...
Loading historical data...
Loading historical data...
Loading historical data...

Documentation

Showing up to 5 results
|